Weather History for Minneapolis Crystal, MN

Change the Weather History Date:

Tuesday, November 6, 2012

  Actual Average Record
Temperature  
Mean Temperature 40 °F -  
Max Temperature 43 °F 44 °F 69 °F (2001)
Min Temperature 37 °F 29 °F 2 °F (1991)
Degree Days  
Heating Degree Days 25    
Moisture  
Dew Point 36 °F    
Average Humidity 84    
Maximum Humidity 93    
Minimum Humidity 71    
Precipitation  
Precipitation 0.23 in - - ()
Sea Level Pressure  
Sea Level Pressure 29.84 in    
Wind  
Wind Speed 11 mph (West)    
Max Wind Speed 14 mph    
Max Gust Speed 24 mph    
Visibility 7 miles    
Events Rain    
Averages and records for this station are not official NWS values.
T = Trace of Precipitation, MM = Missing Value Source: NWS Daily Summary

Daily Weather History Graph

Daily Weather History Graph

Search for Another Location

Airport:

Trip Planner

Search our weather history database for the weather conditions in past years. The results will help you decide how hot, cold, wet, or windy it might be!

Date:

Astronomy

Nov. 06, 2012 Rise Set
Actual Time 6:59 AM CST 4:53 PM CST
Civil Twilight 6:28 AM CST 5:25 PM CST
Nautical Twilight 5:53 AM CST 6:00 PM CST
Astronomical Twilight 5:19 AM CST 6:34 PM CST
Moon 11:37 PM CST (11/6) 12:49 PM CST (11/6)
Length of Visible Light 10h 56m
Length of Day
9h 54m
Waning Gibbous, 53% of the Moon is Illuminated
Nov 6
Waning Gibbous
Nov 6
Last Quarter
Nov 13
New
Nov 20
First Quarter
Nov 28
Full

Hourly Weather History & Observations

Time (CST) Temp. Windchill Dew Point Humidity Pressure Visibility Wind Dir Wind Speed Gust Speed Precip Events Conditions
12:02 AM 41.0 °F 34.7 °F 37.4 °F 87% 29.92 in 3.0 mi SSW 10.4 mph - N/A   Overcast
12:11 AM 41.0 °F 34.3 °F 37.4 °F 87% 29.92 in 2.5 mi South 11.5 mph - 0.00 in Rain Light Rain
12:19 AM 39.2 °F 33.0 °F 37.4 °F 93% 29.91 in 3.0 mi South 9.2 mph - 0.00 in Rain Light Rain
12:45 AM 41.0 °F 34.7 °F 37.4 °F 87% 29.90 in 5.0 mi SSW 10.4 mph - 0.00 in Rain Light Rain
12:53 AM 41.0 °F 35.8 °F 37.0 °F 86% 29.92 in 4.0 mi SSW 8.1 mph 20.7 mph 0.00 in Rain Light Rain
1:07 AM 39.2 °F 31.2 °F 37.4 °F 93% 29.89 in 4.0 mi SSW 13.8 mph 20.7 mph 0.01 in Rain Light Rain
1:16 AM 39.2 °F 32.5 °F 37.4 °F 93% 29.89 in 5.0 mi SSW 10.4 mph 20.7 mph 0.02 in Rain Light Rain
1:31 AM 39.2 °F 33.0 °F 37.4 °F 93% 29.88 in 4.0 mi South 9.2 mph - 0.03 in Rain Light Rain
2:53 AM 39.9 °F 32.1 °F 37.0 °F 89% 29.86 in 5.0 mi SSW 13.8 mph 20.7 mph 0.06 in Rain Rain
3:11 AM 39.2 °F 33.0 °F 35.6 °F 87% 29.82 in 6.0 mi SSW 9.2 mph 24.2 mph 0.02 in Rain Light Rain
3:50 AM 39.2 °F 31.6 °F 37.4 °F 93% 29.79 in 6.0 mi South 12.7 mph 19.6 mph 0.07 in Rain Light Rain
3:53 AM 39.9 °F 33.4 °F 37.0 °F 89% 29.81 in 6.0 mi South 10.4 mph 19.6 mph 0.07 in Rain Light Rain
4:12 AM 39.2 °F 32.0 °F 37.4 °F 93% 29.78 in 5.0 mi South 11.5 mph 18.4 mph 0.01 in Rain Light Rain
4:53 AM 39.9 °F 32.5 °F 37.9 °F 93% 29.79 in 3.0 mi SSW 12.7 mph - 0.05 in Rain Rain
5:10 AM 41.0 °F 34.3 °F 37.4 °F 87% 29.76 in 5.0 mi SSW 11.5 mph 18.4 mph 0.02 in Rain Light Rain
5:53 AM 39.9 °F 33.4 °F 37.0 °F 89% 29.78 in 6.0 mi SW 10.4 mph 18.4 mph 0.02 in   Overcast
6:38 AM 39.2 °F 33.6 °F 37.4 °F 93% 29.74 in 3.0 mi SW 8.1 mph - N/A   Overcast
6:53 AM 39.9 °F 33.9 °F 37.9 °F 93% 29.76 in 7.0 mi SW 9.2 mph - N/A   Overcast
7:53 AM 39.9 °F 32.9 °F 37.9 °F 93% 29.78 in 4.0 mi West 11.5 mph - N/A   Overcast
8:32 AM 41.0 °F 34.3 °F 37.4 °F 87% 29.77 in 10.0 mi NW 11.5 mph 23.0 mph N/A   Overcast
8:53 AM 41.0 °F 35.8 °F 36.0 °F 82% 29.79 in 10.0 mi NW 8.1 mph - N/A   Overcast
9:35 AM 41.0 °F 35.2 °F 37.4 °F 87% 29.77 in 10.0 mi West 9.2 mph - N/A   Overcast
9:53 AM 41.0 °F 34.3 °F 37.0 °F 86% 29.80 in 10.0 mi WNW 11.5 mph - N/A   Overcast
10:53 AM 41.0 °F 33.5 °F 34.0 °F 76% 29.81 in 10.0 mi NW 13.8 mph - N/A   Overcast
11:53 AM 43.0 °F 36.4 °F 34.0 °F 71% 29.80 in 10.0 mi NW 12.7 mph - N/A   Overcast
12:53 PM 42.1 °F 35.2 °F 34.0 °F 73% 29.80 in 10.0 mi West 12.7 mph - N/A   Overcast
1:39 PM 42.8 °F 37.0 °F 35.6 °F 76% 29.78 in 10.0 mi WNW 10.4 mph - N/A   Overcast
1:46 PM 42.8 °F 35.8 °F 35.6 °F 76% 29.78 in 10.0 mi WNW 13.8 mph 19.6 mph N/A   Overcast
1:53 PM 42.1 °F 35.2 °F 35.1 °F 76% 29.80 in 10.0 mi NW 12.7 mph - N/A   Overcast
2:03 PM 42.1 °F 35.2 °F 35.1 °F 76% 29.80 in 8.0 mi NW 12.7 mph - N/A   Overcast
2:22 PM 41.0 °F 35.8 °F 37.4 °F 87% 29.79 in 8.0 mi WNW 8.1 mph - 0.01 in Rain Light Rain
2:53 PM 41.0 °F 35.2 °F 37.0 °F 86% 29.82 in 8.0 mi WNW 9.2 mph - 0.02 in Rain Light Rain
3:53 PM 39.9 °F 33.4 °F 37.0 °F 89% 29.84 in 5.0 mi NW 10.4 mph - 0.01 in Rain Light Rain
4:34 PM 39.2 °F 33.0 °F 35.6 °F 87% 29.82 in 10.0 mi NW 9.2 mph - 0.00 in   Overcast
4:53 PM 39.9 °F 33.9 °F 35.1 °F 83% 29.86 in 10.0 mi NW 9.2 mph - 0.00 in   Overcast
5:53 PM 39.9 °F 32.1 °F 32.0 °F 73% 29.88 in 10.0 mi NW 13.8 mph 23.0 mph N/A   Overcast
6:53 PM 39.0 °F 31.8 °F 32.0 °F 76% 29.90 in 10.0 mi NNW 11.5 mph - N/A   Overcast
7:53 PM 39.0 °F 31.4 °F 32.0 °F 76% 29.92 in 10.0 mi NNW 12.7 mph 19.6 mph N/A   Overcast
8:53 PM 39.0 °F 31.8 °F 32.0 °F 76% 29.94 in 10.0 mi NW 11.5 mph - N/A   Overcast
9:12 PM 39.2 °F 31.2 °F 32.0 °F 75% 29.92 in 10.0 mi NNW 13.8 mph - N/A   Overcast
9:53 PM 39.0 °F 32.8 °F 32.0 °F 76% 29.95 in 10.0 mi NNW 9.2 mph - N/A   Overcast
10:53 PM 37.9 °F 31.5 °F 32.0 °F 79% 29.97 in 10.0 mi NNW 9.2 mph - N/A   Overcast
11:00 PM 37.4 °F 30.8 °F 32.0 °F 81% 29.95 in 10.0 mi NNW 9.2 mph - N/A   Overcast
11:53 PM 37.9 °F 31.5 °F 33.1 °F 83% 29.99 in 10.0 mi NNW 9.2 mph - N/A   Overcast